User: anonymous   Login
Location: Unspecified
(0.0000°N, 0.0000°E)
Time: 20:07:31
(UTC+00:00)
Language:

ONEWEB-0296 - Orbit

View from above orbital plane
View from above orbital plane
View from above satellite
View from above satellite

Ground track
Ground track

The orbit is defined by the following mean orbital elements,

1 49085U          26145.28652235 +.00000000 +00000-0 -23466-3 0 00005
2 49085  87.8962 355.2195 0001835  97.1047 263.0291 13.12441025    09
Epoch (UTC): 25 May 2026 06:52:35
Eccentricity: 0.0001835
inclination: 87.8962°
perigee height: 1212 km
apogee height: 1215 km
right ascension of ascending node: 355.2195°
argument of perigee: 97.1047°
revolutions per day: 13.12441025
mean anomaly at epoch: 263.0291°

The dashed part of the orbit path shows where the satellite is in the earth's shadow,  

DLR